Time,TemperatureF,DewpointF,PressureIn,WindDirection,WindDirectionDegrees,WindSpeedMPH,WindSpeedGustMPH,Humidity,HourlyPrecipIn,Conditions,Clouds,dailyrainin,SoftwareType,DateUTC
2013-03-27 00:00:00,51.9,41.3,30.22,NW,312,4.0,4.0,67,0.00,,,0.00,Wunderground v.1.15,2013-03-27 04:00:00,
2013-03-27 00:10:00,51.5,41.3,30.22,NW,309,3.0,3.0,68,0.00,,,0.00,Wunderground v.1.15,2013-03-27 04:10:00,
2013-03-27 00:20:00,51.3,41.1,30.23,WNW,300,3.0,7.0,68,0.00,,,0.00,Wunderground v.1.15,2013-03-27 04:20:00,
2013-03-27 00:30:00,51.2,41.0,30.23,NW,322,5.0,8.0,68,0.00,,,0.00,Wunderground v.1.15,2013-03-27 04:30:00,
2013-03-27 00:40:00,51.0,40.8,30.22,WNW,302,5.0,5.0,68,0.00,,,0.00,Wunderground v.1.15,2013-03-27 04:40:00,
2013-03-27 00:50:00,50.8,40.6,30.22,NW,307,5.0,7.0,68,0.00,,,0.00,Wunderground v.1.15,2013-03-27 04:50:00,
2013-03-27 01:00:00,50.3,40.5,30.22,NNW,328,4.0,4.0,69,0.00,,,0.00,Wunderground v.1.15,2013-03-27 05:00:00,
2013-03-27 01:10:00,49.9,40.5,30.22,NW,312,3.0,5.0,70,0.00,,,0.00,Wunderground v.1.15,2013-03-27 05:10:00,
2013-03-27 01:20:00,49.7,40.7,30.22,WNW,296,4.0,5.0,71,0.00,,,0.00,Wunderground v.1.15,2013-03-27 05:20:00,
2013-03-27 01:30:00,49.5,40.5,30.21,WNW,302,4.0,4.0,71,0.00,,,0.00,Wunderground v.1.15,2013-03-27 05:30:00,
2013-03-27 01:40:00,49.3,40.7,30.21,NW,309,4.0,4.0,72,0.00,,,0.00,Wunderground v.1.15,2013-03-27 05:40:00,
2013-03-27 01:50:00,49.1,40.8,30.21,NW,314,4.0,4.0,73,0.00,,,0.00,Wunderground v.1.15,2013-03-27 05:50:00,
2013-03-27 02:00:00,48.9,40.3,30.21,NW,322,4.0,4.0,72,0.00,,,0.00,Wunderground v.1.15,2013-03-27 06:00:00,
2013-03-27 02:10:00,48.7,39.7,30.21,NNW,342,4.0,4.0,71,0.00,,,0.00,Wunderground v.1.15,2013-03-27 06:10:00,
2013-03-27 02:20:00,48.7,38.2,30.21,East,86,5.0,6.0,67,0.00,,,0.00,Wunderground v.1.15,2013-03-27 06:20:00,
2013-03-27 02:30:00,48.6,37.4,30.21,NW,322,5.0,5.0,65,0.00,,,0.00,Wunderground v.1.15,2013-03-27 06:30:00,
2013-03-27 02:40:00,48.3,36.7,30.20,NW,318,4.0,4.0,64,0.00,,,0.00,Wunderground v.1.15,2013-03-27 06:40:00,
2013-03-27 02:50:00,48.1,36.1,30.20,NW,304,4.0,4.0,63,0.00,,,0.00,Wunderground v.1.15,2013-03-27 06:50:00,
2013-03-27 03:00:00,47.8,36.2,30.20,NW,316,4.0,6.0,64,0.00,,,0.00,Wunderground v.1.15,2013-03-27 07:00:00,
2013-03-27 03:10:00,47.6,36.4,30.20,NW,316,5.0,6.0,65,0.00,,,0.00,Wunderground v.1.15,2013-03-27 07:10:00,
2013-03-27 03:20:00,47.5,36.7,30.20,NW,307,6.0,6.0,66,0.00,,,0.00,Wunderground v.1.15,2013-03-27 07:20:00,
2013-03-27 03:30:00,47.3,36.5,30.20,WNW,298,5.0,5.0,66,0.00,,,0.00,Wunderground v.1.15,2013-03-27 07:30:00,
2013-03-27 03:40:00,47.1,36.7,30.20,NW,323,5.0,5.0,67,0.00,,,0.00,Wunderground v.1.15,2013-03-27 07:40:00,
2013-03-27 03:50:00,47.0,36.6,30.19,NW,321,6.0,6.0,67,0.00,,,0.00,Wunderground v.1.15,2013-03-27 07:50:00,
2013-03-27 04:00:00,46.8,36.4,30.19,NW,321,5.0,7.0,67,0.00,,,0.00,Wunderground v.1.15,2013-03-27 08:00:00,
2013-03-27 04:10:00,46.6,36.2,30.19,WNW,284,6.0,6.0,67,0.00,,,0.00,Wunderground v.1.15,2013-03-27 08:10:00,
2013-03-27 04:20:00,46.4,36.4,30.18,NW,319,4.0,5.0,68,0.00,,,0.00,Wunderground v.1.15,2013-03-27 08:20:00,
2013-03-27 04:30:00,46.1,36.5,30.19,NW,319,4.0,4.0,69,0.00,,,0.00,Wunderground v.1.15,2013-03-27 08:30:00,
2013-03-27 04:40:00,46.1,36.5,30.19,WNW,300,4.0,4.0,69,0.00,,,0.00,Wunderground v.1.15,2013-03-27 08:40:00,
2013-03-27 04:50:00,46.0,36.8,30.19,NW,326,4.0,4.0,70,0.00,,,0.00,Wunderground v.1.15,2013-03-27 08:50:00,
2013-03-27 05:00:00,46.0,36.4,30.19,NNW,328,4.0,4.0,69,0.00,,,0.00,Wunderground v.1.15,2013-03-27 09:00:00,
2013-03-27 05:10:00,46.0,36.4,30.19,WNW,298,4.0,4.0,69,0.00,,,0.00,Wunderground v.1.15,2013-03-27 09:10:00,
2013-03-27 05:20:00,46.0,36.4,30.19,NNW,336,4.0,5.0,69,0.00,,,0.00,Wunderground v.1.15,2013-03-27 09:20:00,
2013-03-27 05:30:00,45.9,36.3,30.20,NNW,333,4.0,4.0,69,0.00,,,0.00,Wunderground v.1.15,2013-03-27 09:30:00,
2013-03-27 05:40:00,45.9,36.3,30.20,NW,316,5.0,5.0,69,0.00,,,0.00,Wunderground v.1.15,2013-03-27 09:40:00,
2013-03-27 05:50:00,45.9,36.3,30.20,NW,321,4.0,4.0,69,0.00,,,0.00,Wunderground v.1.15,2013-03-27 09:50:00,
2013-03-27 06:00:00,45.7,36.1,30.20,NW,305,4.0,4.0,69,0.00,,,0.00,Wunderground v.1.15,2013-03-27 10:00:00,
2013-03-27 06:10:00,45.5,36.3,30.20,West,277,3.0,3.0,70,0.00,,,0.00,Wunderground v.1.15,2013-03-27 10:10:00,
2013-03-27 06:20:00,45.4,36.2,30.21,NW,311,3.0,3.0,70,0.00,,,0.00,Wunderground v.1.15,2013-03-27 10:20:00,
2013-03-27 06:30:00,45.4,35.8,30.21,NW,320,3.0,4.0,69,0.00,,,0.00,Wunderground v.1.15,2013-03-27 10:30:00,
2013-03-27 06:40:00,45.4,35.8,30.21,WNW,290,4.0,4.0,69,0.00,,,0.00,Wunderground v.1.15,2013-03-27 10:40:00,
2013-03-27 06:50:00,45.4,35.8,30.22,NW,312,3.0,4.0,69,0.00,,,0.00,Wunderground v.1.15,2013-03-27 10:50:00,
2013-03-27 07:00:00,45.4,35.8,30.22,WNW,291,4.0,4.0,69,0.00,,,0.00,Wunderground v.1.15,2013-03-27 11:00:00,
2013-03-27 07:10:00,45.3,35.7,30.22,NW,308,4.0,6.0,69,0.00,,,0.00,Wunderground v.1.15,2013-03-27 11:10:00,
2013-03-27 07:20:00,45.3,35.4,30.23,NW,314,4.0,4.0,68,0.00,,,0.00,Wunderground v.1.15,2013-03-27 11:20:00,
2013-03-27 07:30:00,45.5,35.5,30.23,NNW,328,5.0,5.0,68,0.00,,,0.00,Wunderground v.1.15,2013-03-27 11:30:00,
2013-03-27 07:40:00,45.9,35.6,30.23,NNE,18,5.0,5.0,67,0.00,,,0.00,Wunderground v.1.15,2013-03-27 11:40:00,
2013-03-27 07:50:00,46.4,35.7,30.24,NW,319,5.0,5.0,66,0.00,,,0.00,Wunderground v.1.15,2013-03-27 11:50:00,
2013-03-27 08:00:00,46.9,35.4,30.24,NNW,330,6.0,9.0,64,0.00,,,0.00,Wunderground v.1.15,2013-03-27 12:00:00,
2013-03-27 08:10:00,47.5,35.5,30.24,WSW,254,5.0,8.0,63,0.00,,,0.00,Wunderground v.1.15,2013-03-27 12:10:00,
2013-03-27 08:20:00,48.3,35.5,30.24,NW,315,5.0,10.0,61,0.00,,,0.00,Wunderground v.1.15,2013-03-27 12:20:00,
2013-03-27 08:30:00,49.1,35.4,30.24,WNW,296,6.0,12.0,59,0.00,,,0.00,Wunderground v.1.15,2013-03-27 12:30:00,
2013-03-27 08:40:00,49.9,35.7,30.24,NW,326,7.0,7.0,58,0.00,,,0.00,Wunderground v.1.15,2013-03-27 12:40:00,
2013-03-27 08:50:00,50.6,35.5,30.25,WNW,284,7.0,7.0,56,0.00,,,0.00,Wunderground v.1.15,2013-03-27 12:50:00,
2013-03-27 09:00:00,51.7,36.9,30.25,NW,308,6.0,8.0,57,0.00,,,0.00,Wunderground v.1.15,2013-03-27 13:00:00,
2013-03-27 09:10:00,52.4,37.2,30.25,NNE,13,8.0,9.0,56,0.00,,,0.00,Wunderground v.1.15,2013-03-27 13:10:00,
2013-03-27 09:20:00,53.2,37.4,30.26,NNE,23,8.0,16.0,55,0.00,,,0.00,Wunderground v.1.15,2013-03-27 13:20:00,
2013-03-27 09:30:00,54.1,38.3,30.25,NW,323,8.0,8.0,55,0.00,,,0.00,Wunderground v.1.15,2013-03-27 13:30:00,
2013-03-27 09:40:00,54.6,38.7,30.25,NE,44,8.0,8.0,55,0.00,,,0.00,Wunderground v.1.15,2013-03-27 13:40:00,
2013-03-27 09:50:00,55.4,39.5,30.26,NNW,339,9.0,9.0,55,0.00,,,0.00,Wunderground v.1.15,2013-03-27 13:50:00,
2013-03-27 10:00:00,56.0,40.1,30.26,WNW,293,8.0,8.0,55,0.00,,,0.00,Wunderground v.1.15,2013-03-27 14:00:00,
2013-03-27 10:10:00,57.0,41.4,30.26,WNW,295,7.0,7.0,56,0.00,,,0.00,Wunderground v.1.15,2013-03-27 14:10:00,
2013-03-27 10:20:00,57.8,41.7,30.26,WNW,286,7.0,7.0,55,0.00,,,0.00,Wunderground v.1.15,2013-03-27 14:20:00,
2013-03-27 10:30:00,58.3,42.7,30.27,ENE,71,7.0,8.0,56,0.00,,,0.00,Wunderground v.1.15,2013-03-27 14:30:00,
2013-03-27 10:40:00,58.4,42.8,30.26,NW,304,8.0,8.0,56,0.00,,,0.00,Wunderground v.1.15,2013-03-27 14:40:00,
2013-03-27 10:50:00,59.3,43.1,30.27,North,352,8.0,13.0,55,0.00,,,0.00,Wunderground v.1.15,2013-03-27 14:50:00,
2013-03-27 11:00:00,59.6,43.4,30.27,NNE,20,8.0,8.0,55,0.00,,,0.00,Wunderground v.1.15,2013-03-27 15:00:00,
2013-03-27 11:10:00,59.9,43.7,30.27,NNW,340,8.0,8.0,55,0.00,,,0.00,Wunderground v.1.15,2013-03-27 15:10:00,
2013-03-27 11:20:00,60.4,43.7,30.26,NW,326,8.0,8.0,54,0.00,,,0.00,Wunderground v.1.15,2013-03-27 15:20:00,
2013-03-27 11:30:00,60.7,44.4,30.26,NNW,332,8.0,8.0,55,0.00,,,0.00,Wunderground v.1.15,2013-03-27 15:30:00,
2013-03-27 11:40:00,61.9,44.6,30.26,NNW,338,6.0,8.0,53,0.00,,,0.00,Wunderground v.1.15,2013-03-27 15:40:00,
2013-03-27 11:50:00,62.6,44.7,30.26,NW,323,7.0,7.0,52,0.00,,,0.00,Wunderground v.1.15,2013-03-27 15:50:00,
2013-03-27 12:00:00,62.4,44.5,30.26,NNW,333,8.0,9.0,52,0.00,,,0.00,Wunderground v.1.15,2013-03-27 16:00:00,
2013-03-27 12:10:00,62.7,44.3,30.26,NNW,348,7.0,9.0,51,0.00,,,0.00,Wunderground v.1.15,2013-03-27 16:10:00,
2013-03-27 12:20:00,62.9,44.0,30.26,North,360,7.0,7.0,50,0.00,,,0.00,Wunderground v.1.15,2013-03-27 16:20:00,
2013-03-27 12:30:00,63.5,43.4,30.26,NW,316,6.0,9.0,48,0.00,,,0.00,Wunderground v.1.15,2013-03-27 16:30:00,
2013-03-27 12:40:00,63.1,43.6,30.25,NNW,340,8.0,8.0,49,0.00,,,0.00,Wunderground v.1.15,2013-03-27 16:40:00,
2013-03-27 12:50:00,64.5,43.8,30.25,NNW,345,6.0,10.0,47,0.00,,,0.00,Wunderground v.1.15,2013-03-27 16:50:00,
2013-03-27 13:00:00,64.3,43.1,30.25,North,359,7.0,7.0,46,0.00,,,0.00,Wunderground v.1.15,2013-03-27 17:00:00,
2013-03-27 13:10:00,64.5,42.7,30.24,NNE,29,6.0,8.0,45,0.00,,,0.00,Wunderground v.1.15,2013-03-27 17:10:00,
2013-03-27 13:20:00,65.1,43.2,30.24,NE,48,6.0,9.0,45,0.00,,,0.00,Wunderground v.1.15,2013-03-27 17:20:00,
2013-03-27 13:30:00,65.0,42.5,30.23,NNW,345,6.0,6.0,44,0.00,,,0.00,Wunderground v.1.15,2013-03-27 17:30:00,
2013-03-27 13:40:00,65.1,42.6,30.23,NW,312,5.0,5.0,44,0.00,,,0.00,Wunderground v.1.15,2013-03-27 17:40:00,
2013-03-27 13:50:00,64.7,46.1,30.22,WNW,296,6.0,8.0,51,0.00,,,0.00,Wunderground v.1.15,2013-03-27 17:50:00,
2013-03-27 14:00:00,64.9,45.8,30.22,NE,47,6.0,7.0,50,0.00,,,0.00,Wunderground v.1.15,2013-03-27 18:00:00,
2013-03-27 14:10:00,64.6,46.1,30.22,North,352,9.0,11.0,51,0.00,,,0.00,Wunderground v.1.15,2013-03-27 18:10:00,
2013-03-27 14:20:00,65.3,47.2,30.22,NE,37,7.0,8.0,52,0.00,,,0.00,Wunderground v.1.15,2013-03-27 18:20:00,
2013-03-27 14:30:00,65.0,46.4,30.21,ENE,78,9.0,12.0,51,0.00,,,0.00,Wunderground v.1.15,2013-03-27 18:30:00,
2013-03-27 14:40:00,64.7,46.7,30.22,NE,51,9.0,10.0,52,0.00,,,0.00,Wunderground v.1.15,2013-03-27 18:40:00,
2013-03-27 14:50:00,65.1,47.0,30.21,NE,35,8.0,13.0,52,0.00,,,0.00,Wunderground v.1.15,2013-03-27 18:50:00,
2013-03-27 15:00:00,65.0,46.9,30.21,NNE,32,9.0,9.0,52,0.00,,,0.00,Wunderground v.1.15,2013-03-27 19:00:00,
2013-03-27 15:10:00,65.1,47.5,30.20,NNE,31,9.0,11.0,53,0.00,,,0.00,Wunderground v.1.15,2013-03-27 19:10:00,
2013-03-27 15:20:00,64.8,46.8,30.20,ENE,74,8.0,8.0,52,0.00,,,0.00,Wunderground v.1.15,2013-03-27 19:20:00,
2013-03-27 15:30:00,64.8,47.3,30.20,NE,45,8.0,8.0,53,0.00,,,0.00,Wunderground v.1.15,2013-03-27 19:30:00,
2013-03-27 15:40:00,64.8,46.8,30.20,ENE,58,8.0,9.0,52,0.00,,,0.00,Wunderground v.1.15,2013-03-27 19:40:00,
2013-03-27 15:50:00,64.5,46.5,30.19,NNW,331,8.0,8.0,52,0.00,,,0.00,Wunderground v.1.15,2013-03-27 19:50:00,
2013-03-27 16:00:00,64.7,47.2,30.19,NE,47,7.0,7.0,53,0.00,,,0.00,Wunderground v.1.15,2013-03-27 20:00:00,
2013-03-27 16:10:00,64.4,47.4,30.19,East,90,8.0,8.0,54,0.00,,,0.00,Wunderground v.1.15,2013-03-27 20:10:00,
2013-03-27 16:20:00,64.3,48.3,30.19,ENE,60,8.0,12.0,56,0.00,,,0.00,Wunderground v.1.15,2013-03-27 20:20:00,
2013-03-27 16:30:00,64.2,47.7,30.19,ENE,57,8.0,9.0,55,0.00,,,0.00,Wunderground v.1.15,2013-03-27 20:30:00,
2013-03-27 16:40:00,64.6,47.1,30.19,ENE,74,8.0,8.0,53,0.00,,,0.00,Wunderground v.1.15,2013-03-27 20:40:00,
2013-03-27 16:50:00,64.7,47.2,30.19,NNE,29,7.0,8.0,53,0.00,,,0.00,Wunderground v.1.15,2013-03-27 20:50:00,
2013-03-27 17:00:00,64.4,47.4,30.19,NNW,334,8.0,8.0,54,0.00,,,0.00,Wunderground v.1.15,2013-03-27 21:00:00,
2013-03-27 17:10:00,64.3,46.8,30.19,NE,47,7.0,12.0,53,0.00,,,0.00,Wunderground v.1.15,2013-03-27 21:10:00,
2013-03-27 17:20:00,64.2,46.7,30.19,NE,37,8.0,9.0,53,0.00,,,0.00,Wunderground v.1.15,2013-03-27 21:20:00,
2013-03-27 17:30:00,63.8,46.8,30.19,NE,47,9.0,9.0,54,0.00,,,0.00,Wunderground v.1.15,2013-03-27 21:30:00,
2013-03-27 17:40:00,63.9,47.4,30.19,NNE,31,8.0,8.0,55,0.00,,,0.00,Wunderground v.1.15,2013-03-27 21:40:00,
2013-03-27 17:50:00,63.7,47.2,30.20,NNE,19,9.0,9.0,55,0.00,,,0.00,Wunderground v.1.15,2013-03-27 21:50:00,
2013-03-27 18:00:00,63.8,48.3,30.20,East,84,7.0,8.0,57,0.00,,,0.00,Wunderground v.1.15,2013-03-27 22:00:00,
2013-03-27 18:10:00,63.3,47.3,30.20,ENE,72,8.0,8.0,56,0.00,,,0.00,Wunderground v.1.15,2013-03-27 22:10:00,
2013-03-27 18:20:00,63.5,48.0,30.20,NE,34,6.0,9.0,57,0.00,,,0.00,Wunderground v.1.15,2013-03-27 22:20:00,
2013-03-27 18:30:00,63.3,48.3,30.20,North,8,7.0,7.0,58,0.00,,,0.00,Wunderground v.1.15,2013-03-27 22:30:00,
2013-03-27 18:40:00,63.3,47.8,30.21,NE,34,6.0,12.0,57,0.00,,,0.00,Wunderground v.1.15,2013-03-27 22:40:00,
2013-03-27 18:50:00,62.8,47.3,30.21,ENE,59,7.0,7.0,57,0.00,,,0.00,Wunderground v.1.15,2013-03-27 22:50:00,
2013-03-27 19:00:00,62.8,47.3,30.21,NNE,29,7.0,7.0,57,0.00,,,0.00,Wunderground v.1.15,2013-03-27 23:00:00,
2013-03-27 19:10:00,62.6,48.1,30.21,North,358,7.0,9.0,59,0.00,,,0.00,Wunderground v.1.15,2013-03-27 23:10:00,
2013-03-27 19:20:00,62.4,47.4,30.21,North,354,5.0,5.0,58,0.00,,,0.00,Wunderground v.1.15,2013-03-27 23:20:00,
2013-03-27 19:30:00,62.0,47.5,30.21,NNE,29,5.0,5.0,59,0.00,,,0.00,Wunderground v.1.15,2013-03-27 23:30:00,
2013-03-27 19:40:00,61.6,47.1,30.21,NNE,21,5.0,5.0,59,0.00,,,0.00,Wunderground v.1.15,2013-03-27 23:40:00,
2013-03-27 19:50:00,61.1,46.2,30.22,NNE,27,3.0,3.0,58,0.00,,,0.00,Wunderground v.1.15,2013-03-27 23:50:00,
2013-03-27 20:00:00,60.8,46.8,30.22,NNW,348,4.0,6.0,60,0.00,,,0.00,Wunderground v.1.15,2013-03-28 00:00:00,
2013-03-27 20:10:00,60.5,46.5,30.22,NNW,338,4.0,4.0,60,0.00,,,0.00,Wunderground v.1.15,2013-03-28 00:10:00,
2013-03-27 20:20:00,60.3,46.8,30.23,North,359,4.0,5.0,61,0.00,,,0.00,Wunderground v.1.15,2013-03-28 00:20:00,
2013-03-27 20:30:00,60.0,46.9,30.23,NNW,342,4.0,4.0,62,0.00,,,0.00,Wunderground v.1.15,2013-03-28 00:30:00,
2013-03-27 20:40:00,59.7,46.7,30.23,North,354,3.0,3.0,62,0.00,,,0.00,Wunderground v.1.15,2013-03-28 00:40:00,
2013-03-27 20:50:00,59.5,46.9,30.23,North,358,3.0,4.0,63,0.00,,,0.00,Wunderground v.1.15,2013-03-28 00:50:00,
2013-03-27 21:00:00,59.3,46.7,30.23,NNW,338,3.0,3.0,63,0.00,,,0.00,Wunderground v.1.15,2013-03-28 01:00:00,
2013-03-27 21:10:00,58.9,46.7,30.23,NNW,348,2.0,2.0,64,0.00,,,0.00,Wunderground v.1.15,2013-03-28 01:10:00,
2013-03-27 21:20:00,58.7,46.5,30.23,NNW,344,2.0,2.0,64,0.00,,,0.00,Wunderground v.1.15,2013-03-28 01:20:00,
2013-03-27 21:30:00,58.4,46.7,30.24,NNW,330,2.0,3.0,65,0.00,,,0.00,Wunderground v.1.15,2013-03-28 01:30:00,
2013-03-27 21:40:00,58.2,46.5,30.24,NW,323,2.0,2.0,65,0.00,,,0.00,Wunderground v.1.15,2013-03-28 01:40:00,
2013-03-27 21:50:00,57.9,46.6,30.24,NNW,334,2.0,2.0,66,0.00,,,0.00,Wunderground v.1.15,2013-03-28 01:50:00,
2013-03-27 22:00:00,57.6,46.7,30.24,NW,322,2.0,2.0,67,0.00,,,0.00,Wunderground v.1.15,2013-03-28 02:00:00,
2013-03-27 22:10:00,57.5,46.6,30.24,NNW,336,2.0,2.0,67,0.00,,,0.00,Wunderground v.1.15,2013-03-28 02:10:00,
2013-03-27 22:20:00,57.2,46.3,30.24,NNE,15,2.0,2.0,67,0.00,,,0.00,Wunderground v.1.15,2013-03-28 02:20:00,
2013-03-27 22:30:00,57.0,46.5,30.24,NNW,329,2.0,2.0,68,0.00,,,0.00,Wunderground v.1.15,2013-03-28 02:30:00,
2013-03-27 22:40:00,56.8,46.3,30.24,NNW,340,2.0,2.0,68,0.00,,,0.00,Wunderground v.1.15,2013-03-28 02:40:00,
2013-03-27 22:50:00,56.7,46.3,30.24,NNW,346,2.0,2.0,68,0.00,,,0.00,Wunderground v.1.15,2013-03-28 02:50:00,
2013-03-27 23:00:00,56.6,46.2,30.25,NW,315,2.0,2.0,68,0.00,,,0.00,Wunderground v.1.15,2013-03-28 03:00:00,
2013-03-27 23:10:00,56.4,46.4,30.25,NNW,338,2.0,2.0,69,0.00,,,0.00,Wunderground v.1.15,2013-03-28 03:10:00,
2013-03-27 23:20:00,56.2,46.2,30.25,NW,312,2.0,2.0,69,0.00,,,0.00,Wunderground v.1.15,2013-03-28 03:20:00,
2013-03-27 23:30:00,55.8,46.2,30.25,NW,322,1.0,1.0,70,0.00,,,0.00,Wunderground v.1.15,2013-03-28 03:30:00,
2013-03-27 23:40:00,55.6,46.0,30.25,NNW,347,1.0,2.0,70,0.00,,,0.00,Wunderground v.1.15,2013-03-28 03:40:00,
2013-03-27 23:50:00,55.5,45.9,30.25,NW,314,1.0,2.0,70,0.00,,,0.00,Wunderground v.1.15,2013-03-28 03:50:00,